Temp
23 22 22 22 22 22 22 22 22 22 22 22 22 21 21 21 22 23 23 23 23 23 23 23 23 22 22 21 22 22 22 22 22 22 22 22 21 21 21 21 21 21 21 22 22 21 21 21 21 21 19 17 16 16 17 18 18 16 17 18 18 18 18 18 18 19 19 19 19 19 19 19 19 19 20 19 19 19 19 19 19 19 19 19 19 19
22 21 21 22 22 21 21 21 22 22 22 22 22 21 21 21 22 23 23 23 23 23 22 22 22 21 21 21 21 22 22 21 21 21 21 21 21 21 21 21 21 21 21 21 21 21 22 21 21 21 21 19 17 17 17 18 18 17 17 18 19 19 18 18 19 19 19 19 20 20 20 20 20 20 20 20 19 19 19 19 19 19 19 19 19 19
21 21 21 21 21 21 21 21 21 21 21 21 22 21 21 22 22 22 23 23 23 23 22 22 22 21 21 21 21 21 21 21 21 21 21 21 21 21 21 20 20 20 20 20 20 20 21 21 21 21 21 20 18 18 18 17 18 19 19 19 19 19 19 19 19 19 19 19 20 21 20 20 20 20 20 20 19 19 19 18 19 19 19 19 19 19
21 21 21 21 21 21 21 21 21 21 21 21 22 21 21 22 22 21 22 23 23 23 23 23 22 21 21 21 21 21 21 21 21 21 21 21 20 20 20 19 19 19 18 18 18 19 19 20 21 21 21 20 19 19 19 18 19 19 19 19 19 19 19 19 19 19 19 19 20 20 20 20 20 20 20 20 19 19 19 18 18 19 19 19 19 19
21 21 21 21 21 21 21 21 21 21 21 21 22 21 21 22 21 21 22 22 22 22 23 22 21 21 21 21 21 21 21 21 21 21 21 21 20 20 19 19 19 19 18 18 17 18 18 18 20 21 21 21 20 20 20 19 19 19 19 19 19 19 19 19 19 19 19 19 19 19 19 19 19 20 19 20 20 19 19 19 19 19 19 19 19 19
21 21 21 21 21 21 21 21 21 21 21 21 21 22 22 22 22 22 22 22 21 21 22 22 20 20 21 21 20 20 21 21 21 21 20 20 20 19 19 19 19 19 18 18 17 18 18 17 17 19 20 20 20 20 20 19 19 19 18 19 19 19 19 18 18 18 18 18 19 19 19 19 19 20 20 20 20 20 19 20 20 19 19 19 19 19
21 21 21 21 21 21 21 21 21 21 20 20 21 22 22 22 22 21 22 21 20 20 22 22 20 20 20 20 20 20 20 20 20 20 19 19 20 20 19 19 18 18 18 18 18 17 17 16 16 16 18 19 19 19 20 19 19 19 19 19 19 18 17 17 17 17 18 18 18 19 19 20 20 20 20 20 20 19 20 20 20 20 19 19 19 19
21 21 21 21 21 21 21 21 21 21 21 20 21 22 22 22 21 21 21 21 21 21 21 21 21 20 20 19 19 20 20 20 20 19 19 19 19 19 19 19 18 17 17 17 17 17 17 16 16 16 16 17 17 18 18 18 19 19 19 18 17 16 16 17 18 18 19 18 18 19 19 20 20 20 20 19 19 19 19 20 20 20 20 20 19 19
21 21 21 20 20 20 21 21 21 21 21 20 21 22 22 22 21 22 21 21 21 21 20 21 21 20 19 19 19 20 20 19 19 19 18 18 18 18 19 19 18 17 17 17 17 17 17 16 16 16 15 15 16 16 17 17 18 18 19 18 16 16 16 18 19 19 18 17 18 19 19 19 19 19 19 18 19 19 19 19 19 20 20 20 20 20
21 20 20 20 20 20 20 21 21 21 21 21 21 21 21 21 21 21 21 21 21 20 19 20 20 20 20 19 19 19 18 18 18 18 18 18 17 17 18 18 18 18 17 16 17 17 16 16 16 15 15 15 15 15 15 16 17 18 18 16 16 16 17 17 18 18 18 17 17 18 19 19 19 19 19 19 18 18 19 19 19 19 19 19 20 20
20 20 20 20 20 20 20 21 20 20 21 21 21 21 21 21 21 21 21 21 20 19 19 20 20 20 19 19 18 18 17 17 17 17 17 17 17 16 16 17 18 18 17 17 17 17 17 16 16 16 15 15 15 15 15 15 16 17 17 16 15 16 16 16 17 18 18 17 17 18 18 19 19 19 19 19 19 19 19 19 19 19 19 19 19 20
20 20 20 20 20 20 20 20 20 20 21 21 21 21 20 20 21 20 20 20 18 18 19 20 20 20 19 17 17 17 16 16 16 16 15 15 16 15 15 16 17 17 17 17 17 17 17 17 16 16 16 15 15 14 14 14 15 16 16 16 16 16 16 16 17 17 17 17 17 17 18 18 19 19 19 19 19 19 19 20 20 19 20 19 19 19
20 20 20 20 19 20 20 20 20 20 20 20 21 20 19 19 19 18 19 19 19 19 20 20 20 19 18 17 16 17 16 16 15 15 15 15 15 15 15 15 16 16 16 16 16 16 17 17 17 17 16 16 15 15 15 15 15 15 16 16 16 16 16 16 16 16 16 16 17 17 17 18 19 19 19 19 20 19 19 20 20 20 20 20 19 19
20 19 19 20 19 20 20 19 19 19 20 20 20 20 19 18 18 17 18 19 19 19 20 20 19 19 18 17 16 16 16 15 15 15 15 15 15 15 15 15 15 15 15 16 16 16 16 16 16 16 16 16 16 16 16 16 16 16 15 16 16 16 16 16 16 16 16 16 16 17 17 17 18 18 19 19 20 20 19 19 19 20 20 20 19 20
18 18 19 19 19 19 20 19 18 19 20 20 21 20 19 19 18 17 18 19 19 19 19 19 18 18 18 16 15 16 15 15 14 14 15 15 15 15 15 14 14 14 15 16 16 15 16 16 16 16 16 16 16 16 16 16 16 16 16 16 16 16 16 16 16 16 16 16 16 17 17 16 17 17 18 19 19 19 19 19 18 19 19 20 20 20
18 18 18 18 18 19 19 18 19 19 19 20 21 20 19 20 20 18 18 18 18 18 19 18 18 18 17 15 15 15 14 14 14 14 14 14 15 15 15 14 13 13 14 15 15 15 15 15 15 15 15 15 15 15 15 15 16 16 16 16 16 16 16 16 16 16 16 16 16 16 16 16 16 17 17 17 18 18 18 18 18 18 19 19 20 20
18 18 18 18 18 18 18 18 18 18 18 19 19 20 20 20 20 19 17 17 17 17 18 18 19 18 16 15 15 14 14 13 13 13 13 14 15 15 15 15 14 13 13 13 14 15 15 15 15 15 15 15 15 15 15 15 15 15 16 16 16 16 16 16 16 16 16 15 15 15 15 16 16 16 17 17 17 18 18 18 18 18 18 19 19 19
17 17 18 18 18 18 17 17 18 17 17 17 18 19 20 20 20 19 18 17 17 17 18 18 18 18 17 15 14 14 14 13 12 12 12 13 14 14 15 15 14 13 13 13 13 15 15 15 14 15 15 15 14 15 15 15 15 15 15 16 16 16 16 16 16 16 16 16 16 16 15 15 16 16 16 17 17 17 17 18 18 18 18 18 19 19
17 17 17 18 18 17 17 17 17 16 17 17 17 19 20 18 18 19 18 17 17 17 17 17 17 18 18 15 13 14 14 12 12 12 12 13 13 14 14 15 15 14 14 14 13 14 16 15 15 14 15 15 14 15 15 15 15 15 15 15 15 15 16 15 15 16 16 16 16 16 16 16 16 16 16 16 16 16 17 17 17 17 18 18 18 19
17 16 16 17 17 17 17 17 17 16 16 17 18 19 20 18 19 19 18 18 18 17 17 17 17 18 18 16 14 14 14 12 12 12 12 13 13 13 14 14 15 14 14 14 14 14 16 15 15 15 14 15 15 15 15 15 15 15 15 15 15 15 15 15 15 16 16 16 16 16 16 16 16 16 16 16 16 16 17 17 17 18 18 18 18 18
17 16 16 17 17 17 16 16 17 16 16 17 17 18 19 19 19 19 19 19 18 17 17 16 17 17 17 16 15 15 13 13 12 12 13 13 13 12 13 14 15 14 14 14 14 15 16 15 15 15 15 15 15 15 15 15 15 15 15 15 15 15 15 15 15 16 16 16 16 16 16 16 16 16 16 16 16 17 17 17 17 18 18 18 18 18
17 16 16 17 17 16 15 16 16 16 16 16 16 17 18 19 18 18 18 19 18 18 17 17 17 16 15 15 15 14 13 13 13 13 13 13 13 12 12 13 14 14 14 14 14 15 16 15 15 15 15 15 15 15 15 15 15 15 15 15 14 15 15 15 15 15 15 15 15 15 16 16 16 16 16 16 16 16 16 17 17 17 18 18 18 17
16 17 17 16 16 16 15 16 16 15 15 16 16 17 18 18 18 17 17 18 18 18 18 17 17 15 14 15 15 14 14 14 14 14 14 14 13 13 12 13 14 15 15 15 15 15 15 15 15 15 15 15 15 15 15 15 15 14 15 15 15 14 14 14 14 15 15 15 15 15 15 16 16 16 16 16 16 16 16 16 16 16 17 17 17 17
16 16 17 16 16 16 16 16 16 16 15 15 16 17 18 17 17 18 18 18 18 18 18 18 17 15 14 15 15 15 15 15 15 15 15 14 14 14 13 13 14 15 15 15 15 15 15 15 16 15 15 15 15 15 15 15 15 14 14 14 15 14 14 14 14 14 15 15 15 15 15 15 15 15 16 16 16 16 16 16 16 16 16 17 17 17
16 16 17 16 16 15 15 16 16 16 16 16 16 16 17 17 17 17 18 18 18 18 18 18 17 15 14 15 15 15 16 16 16 15 15 15 15 14 14 14 14 15 15 15 15 15 15 16 16 16 15 15 15 15 15 15 15 15 14 14 14 14 14 14 14 14 14 14 14 14 14 14 15 15 15 15 15 15 16 16 16 16 16 16 16 17
17 16 16 17 16 16 15 15 15 16 16 16 16 16 16 16 16 16 17 17 17 18 18 18 17 16 15 15 15 15 16 16 16 16 16 16 15 15 15 15 15 15 15 15 15 15 15 16 16 15 15 15 15 15 15 15 15 14 14 14 14 13 13 13 13 13 13 13 14 14 14 14 14 14 14 14 14 15 15 16 16 16 16 16 17 17
17 16 16 16 16 16 16 16 15 15 16 15 16 16 16 16 16 16 16 17 17 18 18 18 18 17 16 16 16 16 16 16 16 16 16 15 15 15 15 15 15 15 15 15 15 15 15 15 15 15 15 15 15 14 15 14 14 14 14 14 14 13 13 13 13 13 13 13 13 13 13 14 14 14 14 14 14 14 14 15 15 16 16 16 16 17
17 17 16 16 16 16 16 16 15 15 15 15 15 16 16 16 16 16 16 17 17 17 17 17 18 17 17 17 17 16 16 16 16 16 16 15 15 15 15 15 15 15 16 16 15 15 15 15 15 14 14 14 14 14 14 14 14 14 14 14 13 13 13 13 13 13 13 13 13 13 13 13 13 13 13 13 14 14 14 14 14 15 15 15 16 16
17 17 16 16 16 16 16 16 15 15 15 15 15 15 16 16 16 16 16 16 16 17 17 17 17 17 17 18 18 17 17 16 16 16 16 15 15 15 15 15 15 16 16 16 15 15 15 15 15 14 14 14 14 14 14 14 14 14 14 13 13 13 13 13 13 13 13 13 13 13 13 13 13 13 13 13 13 14 13 14 14 14 14 15 15 15
17 16 16 16 16 16 16 16 15 15 15 16 16 16 16 16 16 16 16 16 16 16 16 16 16 17 17 18 18 17 17 17 16 16 16 15 15 15 15 16 16 16 16 16 15 15 15 15 15 15 14 14 14 14 14 14 14 14 14 13 13 13 13 13 13 13 13 13 13 13 13 13 13 13 13 13 13 13 13 13 13 13 14 14 14 14
16 16 16 16 16 16 16 16 16 16 16 16 16 17 16 16 16 16 16 15 15 15 16 16 16 16 17 18 17 17 17 17 16 16 16 16 16 15 15 16 16 16 16 16 15 15 15 15 15 15 14 14 14 14 14 14 14 14 14 13 13 13 13 13 13 13 13 13 13 13 13 13 13 13 13 13 13 13 13 13 13 13 13 14 14 14
16 16 16 16 16 16 16 16 16 16 16 16 16 17 16 16 16 16 16 16 16 16 15 15 16 17 17 17 17 16 16 16 16 16 16 16 16 15 15 15 15 15 16 16 16 15 15 15 15 14 14 14 14 14 14 14 14 14 13 13 13 13 13 13 13 13 13 13 13 13 13 13 13 13 13 13 13 13 13 13 13 13 13 13 13 13
17 17 17 16 17 17 17 16 16 16 16 16 17 17 17 16 16 16 16 16 16 16 15 16 17 17 17 17 17 16 16 16 16 16 16 16 16 16 16 15 15 15 15 15 15 15 15 15 15 14 14 14 14 14 14 14 13 13 13 13 13 13 13 13 13 13 13 13 13 13 13 13 13 13 13 13 13 13 13 13 13 13 13 13 13 13
17 17 17 17 17 17 17 17 17 16 16 17 17 17 17 17 17 16 16 17 16 16 16 17 17 17 17 17 17 16 16 16 16 16 16 16 16 16 15 15 15 15 15 15 15 16 16 15 15 14 14 14 14 13 13 13 13 13 13 13 13 13 13 13 13 13 13 13 13 13 12 12 12 12 12 12 13 13 13 13 12 12 12 12 12 13
17 17 17 17 17 17 18 18 17 16 17 17 17 17 17 17 17 16 17 17 17 16 16 16 16 17 17 17 17 17 17 17 17 17 16 16 16 16 15 15 15 15 15 15 15 16 16 15 14 14 14 13 13 13 14 13 13 13 13 13 13 13 13 13 13 13 12 12 12 12 12 12 12 12 12 12 13 13 12 12 12 11 11 11 11 12
17 17 17 17 17 17 18 18 17 17 17 17 16 16 16 16 16 16 16 17 17 17 17 16 17 17 17 17 17 17 16 16 16 16 16 16 16 16 15 15 15 15 15 15 15 15 15 15 15 14 13 13 13 13 13 13 13 13 13 13 13 13 12 13 13 13 12 12 12 12 12 12 12 12 12 12 12 12 12 11 11 10 10 10 10 10
17 17 17 17 17 17 17 18 18 18 17 17 16 16 16 16 16 16 16 17 18 18 17 17 17 17 17 17 17 16 16 16 15 16 16 16 16 16 16 15 15 15 15 15 15 15 15 14 14 14 13 13 13 13 13 13 12 13 13 13 12 12 12 12 12 12 12 12 12 12 11 11 11 11 11 11 11 11 11 10 10 10 9 9 9 9
17 17 17 17 16 17 17 17 18 17 17 17 17 18 17 17 17 17 16 17 18 18 18 18 17 17 17 17 16 16 15 15 16 17 17 16 16 16 16 16 16 16 15 15 15 15 14 14 14 13 13 13 13 13 13 12 12 12 13 13 12 12 12 12 12 12 12 11 11 11 11 11 11 11 10 10 10 10 10 9 9 9 8 8 8 8
17 17 17 16 17 17 17 17 17 17 17 18 18 17 17 17 17 17 16 17 18 18 18 18 17 17 17 16 16 16 15 15 17 18 17 16 16 16 16 16 16 16 16 15 15 15 15 14 14 13 13 13 13 13 13 12 12 12 12 12 12 12 12 12 12 11 11 11 11 11 11 10 10 10 10 10 10 9 9 9 8 8 7 7 7 7
16 17 17 16 17 17 17 17 18 18 18 18 18 17 17 17 17 16 16 17 18 18 18 18 17 17 17 17 16 16 16 16 17 17 17 16 16 16 16 17 17 16 16 16 15 15 15 14 14 14 14 13 13 13 13 12 12 12 12 12 12 12 11 11 11 11 11 11 11 10 10 10 10 10 10 10 9 9 8 8 7 7 7 7 7 7
16 16 17 17 17 18 17 17 18 18 19 18 18 17 17 16 16 16 17 18 18 18 18 18 18 17 17 17 16 16 17 17 16 16 16 16 16 16 16 16 16 16 16 16 15 14 15 15 14 14 14 14 13 13 13 12 12 12 12 12 11 11 11 11 11 11 11 11 10 10 10 10 10 10 10 9 8 8 8 8 7 7 7 7 7 7
17 16 17 17 17 18 18 17 18 18 18 17 17 17 16 16 17 17 18 18 18 18 17 17 17 18 17 17 17 17 17 17 15 15 16 15 16 17 17 16 16 16 15 15 14 14 14 14 14 14 14 14 13 13 13 12 12 12 12 12 11 11 11 10 10 10 10 10 10 10 10 10 10 10 9 9 8 8 8 8 7 7 7 7 7 7
18 17 17 18 18 18 18 17 17 17 17 16 16 16 15 16 18 19 18 18 18 18 18 17 17 17 17 17 17 17 17 16 15 15 16 15 16 17 17 16 16 16 16 15 15 14 14 14 14 14 14 14 14 13 13 12 12 12 12 12 11 11 10 10 10 10 10 10 10 10 10 10 10 10 9 8 8 8 8 8 7 7 7 7 7 7
18 18 18 19 19 18 17 17 18 18 18 17 17 17 17 18 19 19 19 19 18 18 18 17 17 17 17 17 17 17 16 16 15 15 15 15 16 16 16 16 16 16 16 15 15 14 14 14 14 14 14 14 13 13 12 12 12 12 12 12 11 10 10 10 10 10 10 10 10 10 10 10 10 10 9 8 8 8 8 8 7 7 7 7 7 7
18 18 18 19 19 19 19 19 19 19 18 17 18 19 19 19 19 19 19 19 18 18 18 18 17 17 17 17 17 17 16 16 16 16 15 15 16 16 16 16 16 16 16 15 15 14 14 14 14 13 13 13 13 13 12 12 12 12 12 11 11 10 10 10 10 10 10 10 10 10 10 10 10 9 9 9 8 9 8 8 8 8 7 7 7 7
18 18 17 18 19 19 19 19 19 19 19 18 19 19 19 18 18 18 18 19 19 18 18 18 18 17 17 17 17 17 16 16 16 16 16 16 16 16 16 16 16 15 15 15 15 14 14 14 14 14 14 13 13 13 13 12 12 12 11 11 11 10 10 10 10 10 10 10 10 10 10 10 9 9 9 9 9 9 9 8 8 8 7 7 7 7
19 18 18 18 18 18 18 19 19 19 19 19 19 19 18 18 18 18 18 19 19 18 18 18 18 17 17 17 17 17 16 16 16 16 16 16 16 16 16 16 16 15 15 15 15 14 14 14 14 14 14 14 13 13 13 12 12 12 11 11 10 10 10 10 9 9 10 10 10 10 10 10 9 9 10 9 9 9 9 9 9 8 8 7 6 6
19 17 17 18 18 18 19 20 20 19 19 19 19 19 19 18 18 18 18 18 19 18 18 18 18 17 17 17 17 17 16 16 16 16 16 16 16 16 16 16 16 16 15 15 15 14 14 14 14 14 14 14 13 13 13 12 12 12 11 11 10 10 10 9 9 9 9 10 10 10 10 10 9 9 10 10 9 9 10 9 9 8 8 7 6 5
17 17 18 18 18 19 19 20 20 19 19 19 19 19 19 19 19 18 18 17 18 18 18 18 18 18 17 17 17 17 16 16 16 16 16 16 16 16 16 16 16 16 15 15 15 14 14 14 14 14 14 14 14 13 13 12 12 11 11 11 10 10 10 9 9 9 9 10 10 10 10 10 10 10 10 10 10 10 10 9 8 8 8 7 5 4
17 18 19 18 17 18 19 20 20 19 19 20 20 19 19 19 19 19 18 17 17 18 18 17 17 17 18 18 18 17 16 16 17 17 17 16 17 17 16 16 16 16 15 15 15 14 14 14 14 14 14 14 14 13 13 12 12 11 11 11 10 10 9 9 9 10 10 10 10 10 9 10 10 10 10 10 10 10 10 9 8 8 8 7 6 5
18 19 19 18 18 19 20 20 20 19 19 21 20 19 19 19 18 18 18 18 18 18 18 18 17 17 17 17 18 17 17 17 17 17 17 17 17 16 16 16 16 16 16 15 15 14 14 14 14 14 14 14 14 13 13 13 12 12 11 11 10 10 9 9 10 10 10 11 10 9 9 9 10 10 10 10 10 10 10 10 9 9 8 7 6 6
Height
797 800 800 800 800 801 802 802 801 802 803 804 804 804 803 801 799 797 797 795 794 797 799 798 800 803 805 804 802 800 798 799 799 800 799 799 799 797 797 796 795 793 791 789 788 788 786 785 786 787 790 794 793 794 796 797 798 803 803 802 803 805 807 809 812 816 818 819 821 823 826 828 830 833 835 837 839 840 841 842 843 845 847 849 851 852
799 802 802 801 802 803 804 803 803 804 804 805 804 803 803 802 797 795 797 796 794 797 800 801 803 806 807 805 804 801 801 803 802 802 803 801 800 799 799 798 797 795 793 791 790 788 787 786 786 786 788 790 791 791 792 793 796 800 801 801 803 804 806 808 810 813 814 816 818 820 823 825 828 831 834 836 837 839 840 841 842 843 846 847 849 851
802 802 803 803 802 803 805 804 804 805 805 805 802 802 803 799 795 797 797 796 795 797 798 800 804 808 807 805 805 803 802 804 803 802 804 803 802 801 800 800 800 799 798 795 793 791 789 787 786 786 787 788 790 789 790 792 795 798 798 799 802 803 804 806 808 810 812 814 816 819 821 824 827 830 832 834 836 837 838 839 840 842 844 845 847 849
804 804 803 803 802 804 805 805 805 805 805 804 801 803 803 799 800 803 800 798 797 796 796 797 801 805 807 806 805 804 802 802 802 802 802 802 803 803 803 804 804 804 803 800 799 796 793 790 787 786 787 787 790 791 792 794 795 796 797 798 799 800 801 803 806 808 811 814 816 818 821 823 826 829 831 833 834 836 837 838 839 840 841 843 845 847
802 803 802 803 804 803 804 805 805 804 804 802 800 801 802 800 801 801 800 800 799 797 795 798 803 803 803 805 806 804 802 802 802 802 803 803 804 805 805 805 805 805 805 803 802 799 797 795 791 788 788 788 789 791 792 794 795 796 797 797 797 798 799 802 805 809 812 815 817 818 820 823 825 828 829 831 832 833 835 836 837 838 839 841 843 845
802 803 802 804 804 803 804 804 802 802 804 804 801 799 797 798 799 799 800 801 806 806 795 798 812 808 799 804 807 806 805 805 805 804 806 806 805 806 805 805 806 805 805 804 804 802 800 798 795 791 789 789 789 790 792 794 795 796 796 796 796 797 800 803 806 809 812 815 817 817 818 821 823 825 827 828 829 831 833 835 836 837 838 839 841 843
803 803 803 805 804 803 804 803 800 801 805 806 801 797 797 798 800 800 799 803 810 808 796 797 811 811 804 805 808 808 809 808 808 808 809 808 806 806 806 807 808 808 807 805 805 805 803 802 799 796 793 791 791 791 792 793 794 795 795 795 795 798 801 805 808 810 811 814 816 817 818 820 822 823 825 826 828 830 831 833 834 835 836 838 839 841
803 803 804 804 803 803 804 804 801 800 804 807 800 798 800 799 801 800 799 803 802 800 800 798 802 808 807 807 808 808 809 811 811 812 812 811 809 808 808 809 810 812 811 808 807 806 806 805 803 800 797 795 794 793 792 793 793 793 793 794 796 798 801 805 808 809 810 813 815 817 818 820 821 822 824 826 827 829 830 832 833 835 836 837 838 839
803 804 804 804 805 806 804 803 800 800 803 804 799 798 798 798 800 798 799 801 796 803 810 800 797 807 808 808 811 807 808 814 815 814 814 814 813 812 810 810 811 813 813 811 810 808 808 807 805 804 801 798 796 795 795 794 793 793 793 795 797 799 801 803 805 808 810 813 814 815 817 818 820 821 823 826 827 828 830 831 833 834 835 836 837 838
802 804 803 804 807 806 804 801 799 801 802 800 799 799 798 798 799 799 800 799 798 810 814 801 799 808 807 807 810 810 815 819 817 816 817 818 818 818 815 813 812 813 814 814 812 811 810 810 808 807 804 801 799 798 798 796 794 793 793 796 799 800 802 804 806 808 810 811 812 814 815 816 818 820 822 824 826 827 828 829 832 834 837 837 836 836
802 803 803 804 805 803 802 801 801 802 800 799 801 800 801 800 799 801 799 798 807 815 809 798 800 807 810 811 811 817 823 823 821 821 823 823 822 822 820 816 815 814 814 815 813 812 812 811 811 809 807 806 803 801 799 797 795 795 794 797 800 801 802 804 806 808 809 809 810 811 813 815 817 819 820 821 823 824 825 825 826 830 835 838 836 834
802 804 803 803 804 802 802 801 801 801 799 801 801 800 806 805 802 806 803 805 818 818 805 799 800 804 812 818 818 820 823 824 826 827 828 828 826 825 824 820 818 817 816 816 815 814 813 812 812 810 809 809 806 804 801 799 798 798 798 798 800 801 801 802 805 807 808 808 808 809 811 812 814 815 816 817 819 820 821 822 824 826 828 831 833 833
801 802 803 803 804 802 802 802 803 802 800 802 801 803 813 813 813 818 813 811 814 809 802 800 802 806 810 816 820 820 822 825 827 828 830 831 828 827 827 824 822 820 819 818 817 816 814 814 813 812 811 810 810 808 806 804 803 802 802 801 801 802 802 802 804 806 806 806 807 808 809 810 811 812 813 814 816 817 817 819 822 824 825 826 829 830
804 806 804 804 805 802 802 806 809 807 803 802 802 806 814 816 823 829 819 811 809 804 801 799 805 810 810 816 821 821 824 827 828 829 830 831 830 829 828 827 825 823 822 821 819 818 817 816 815 814 813 812 812 811 810 808 807 806 805 804 804 804 804 804 805 805 806 806 807 808 809 810 811 812 813 814 815 816 816 817 818 820 822 823 826 827
813 816 809 807 809 804 804 808 810 807 802 799 795 800 808 809 815 824 816 809 809 805 802 805 810 809 811 822 825 823 827 829 830 831 830 830 830 829 828 828 828 827 824 822 820 820 819 818 817 816 815 814 813 812 811 810 809 808 807 807 806 806 806 806 807 806 806 806 806 808 809 810 810 811 813 814 815 815 816 817 817 818 819 820 822 825
813 816 810 808 808 806 809 810 808 808 806 800 795 799 805 801 801 811 814 811 811 809 806 808 809 806 814 825 825 825 831 831 833 833 832 832 830 828 829 829 830 829 827 825 823 822 822 820 819 818 817 816 815 814 813 811 810 810 809 809 808 808 808 808 808 807 806 806 806 807 808 809 810 811 812 813 814 815 815 816 817 818 818 819 820 821
814 816 810 808 808 808 812 811 808 813 813 808 804 802 800 795 796 808 816 815 817 819 812 807 806 807 816 824 824 828 833 834 835 836 835 834 831 830 829 829 830 830 829 828 826 824 824 823 821 819 818 817 816 815 814 813 813 812 811 810 810 810 810 810 809 808 807 807 807 807 808 809 810 811 811 812 813 814 815 815 816 817 818 818 819 819
816 817 810 808 812 811 812 812 811 814 815 814 813 803 795 798 799 805 815 818 819 820 812 807 809 808 812 823 829 829 831 837 839 839 839 836 834 833 830 829 830 830 830 830 828 827 825 824 823 821 820 819 818 817 816 816 815 814 813 812 811 811 811 810 809 808 808 808 808 808 809 809 810 810 810 811 811 812 813 814 815 816 816 817 817 817
815 819 814 809 812 812 810 812 815 816 814 813 813 802 799 809 808 806 815 819 819 820 814 811 810 804 804 819 830 829 831 839 841 841 842 839 837 835 831 829 829 829 829 829 829 828 825 824 824 823 822 820 819 819 817 817 816 816 815 814 813 812 811 810 810 809 809 809 808 808 809 809 809 809 809 810 810 811 812 813 814 815 815 816 816 816
814 821 821 813 811 812 811 812 815 818 816 812 810 802 799 806 805 803 807 809 813 818 817 817 812 802 803 814 824 827 830 837 840 841 841 838 838 837 834 830 829 829 829 829 829 827 824 824 824 823 823 821 820 820 819 819 818 817 816 815 814 813 812 811 810 810 810 810 810 809 809 808 808 809 809 809 810 811 811 812 813 813 814 814 815 815
815 820 823 816 811 814 818 817 814 817 817 814 814 809 802 802 803 803 802 801 808 814 816 820 815 807 810 815 818 824 830 834 837 838 837 836 838 838 836 832 830 830 830 829 829 827 825 825 824 823 823 821 821 820 820 820 819 819 818 817 815 814 813 812 811 811 811 811 811 811 810 810 809 809 809 809 809 810 810 811 811 812 813 813 813 813
817 819 819 816 815 819 823 820 816 818 817 815 817 813 804 802 805 811 809 802 804 809 811 817 817 814 818 819 819 824 830 832 833 834 834 835 837 839 839 835 831 831 830 829 829 827 826 826 826 825 823 822 823 822 821 821 820 820 819 818 817 815 814 814 813 812 812 811 811 811 811 811 810 809 809 808 809 809 809 810 810 811 811 811 812 812
817 816 816 817 819 820 822 819 818 820 818 817 817 811 804 803 806 811 812 806 804 807 807 810 816 821 823 821 821 825 828 829 830 831 832 832 834 836 837 836 833 830 829 829 828 828 827 826 826 826 825 824 824 823 823 822 821 822 821 819 818 817 816 816 814 814 813 812 812 812 811 811 810 810 809 809 809 809 809 810 810 810 810 810 810 811
819 816 817 820 820 818 818 817 817 818 819 820 816 810 808 809 808 808 808 808 807 807 806 806 814 825 825 821 822 823 824 825 826 827 829 829 831 833 835 835 833 830 829 829 828 828 828 827 826 826 826 825 825 825 824 823 823 823 822 821 820 819 818 817 816 816 815 814 813 813 812 811 811 811 810 810 810 810 810 810 810 810 809 809 809 809
818 817 816 819 821 822 822 819 818 818 818 817 816 814 813 811 810 809 807 808 808 805 804 804 811 822 824 821 821 821 820 821 822 824 825 826 828 831 832 832 831 829 829 828 828 828 828 827 827 826 827 826 826 825 825 824 824 823 823 823 822 821 820 819 818 817 816 816 815 814 814 813 813 812 812 812 812 811 811 811 810 810 809 809 809 808
815 818 816 815 817 822 823 821 821 819 815 815 816 817 816 813 814 814 811 810 809 806 805 804 807 817 821 820 820 819 818 819 819 822 823 823 826 828 828 829 828 828 828 828 828 828 828 828 828 827 827 826 826 826 825 825 825 824 824 824 823 823 822 821 820 819 818 817 816 816 815 814 814 814 813 813 812 812 812 811 811 810 810 809 809 808
814 817 818 816 816 818 820 819 819 819 818 820 819 817 817 816 816 816 814 811 807 804 804 801 802 811 816 815 816 817 817 818 819 821 822 823 825 826 827 828 827 827 827 827 828 828 828 828 828 828 828 827 826 826 826 826 825 825 825 824 823 823 822 822 820 819 818 818 817 817 816 815 815 814 813 813 812 812 812 811 811 810 810 809 808 808
815 816 819 820 818 818 819 818 819 821 822 822 820 818 817 816 817 818 815 810 807 807 807 805 805 808 809 807 810 813 815 816 818 820 821 823 825 826 826 827 827 826 826 826 827 828 828 828 828 828 828 827 827 826 826 825 825 825 825 824 824 823 822 822 821 819 819 818 818 817 816 816 815 814 813 813 812 812 811 811 811 810 810 809 808 808
814 817 820 821 820 819 819 819 819 820 821 820 820 820 818 816 816 817 814 811 812 812 810 810 810 808 806 804 805 808 811 814 817 818 820 823 824 825 826 826 825 825 825 825 826 827 827 827 827 828 827 827 826 826 825 825 825 825 824 824 823 823 822 822 821 820 819 818 818 818 817 816 815 814 814 813 812 812 811 811 811 810 810 809 809 808
815 819 820 820 821 820 818 818 819 819 819 818 817 816 815 815 814 814 813 813 815 814 811 811 812 809 805 803 804 806 809 812 815 818 821 822 823 824 824 824 823 824 824 824 825 826 827 827 827 827 827 827 827 826 826 825 825 824 824 824 824 823 822 822 821 820 819 819 818 818 817 816 815 814 813 813 812 811 811 810 810 810 809 809 809 808
818 821 821 820 820 819 817 817 818 817 817 816 814 811 812 815 815 814 814 815 817 815 811 812 814 810 804 802 805 809 811 813 816 819 820 820 821 823 823 823 823 823 823 823 825 826 826 826 827 827 827 827 827 827 826 826 825 825 825 824 824 823 822 821 821 820 819 819 818 817 816 815 815 814 813 812 812 811 810 810 809 809 809 808 808 808
817 818 819 819 819 817 816 816 815 815 815 815 814 811 811 815 816 813 812 813 814 814 814 816 813 806 802 804 808 811 813 814 815 816 818 820 821 822 823 823 823 823 823 823 824 825 826 826 826 827 828 827 827 827 827 826 826 825 825 825 824 823 823 822 821 820 820 819 818 817 817 815 814 814 813 812 811 811 810 809 809 808 808 807 807 806
813 814 814 816 815 813 812 813 813 815 816 814 810 808 808 811 812 811 810 810 811 813 816 813 806 802 803 806 809 812 813 814 814 815 817 819 820 821 822 822 823 823 823 823 823 824 826 826 827 827 828 827 827 827 827 827 827 826 826 825 824 824 823 822 821 821 820 819 819 818 817 816 815 814 813 812 811 810 809 809 808 807 807 806 806 805
812 812 812 812 813 810 807 808 811 815 815 810 805 803 805 808 809 810 810 807 808 810 810 806 803 804 806 807 808 811 811 812 813 813 815 816 818 820 821 822 822 823 823 824 824 824 825 827 828 828 828 828 828 828 827 827 827 827 826 825 825 824 823 823 822 821 820 820 819 818 817 816 815 814 813 812 811 810 809 808 807 807 806 805 805 804
813 812 811 812 812 809 802 803 813 816 810 804 803 804 805 806 806 808 807 803 804 807 807 806 807 806 806 806 806 807 809 810 812 813 814 816 817 819 821 822 822 823 824 824 824 824 825 827 828 828 828 829 829 828 827 827 828 827 826 825 825 824 823 823 822 821 820 820 819 818 817 816 815 814 813 812 810 810 809 808 807 806 805 804 803 802
812 812 810 810 811 809 805 806 812 812 804 803 807 808 808 809 809 811 809 803 800 802 805 806 805 804 805 806 806 808 810 812 813 814 814 816 817 819 820 822 823 823 823 824 824 825 825 826 827 828 829 829 829 828 827 828 828 827 826 825 825 824 823 823 821 821 820 819 818 817 816 815 814 813 812 811 810 809 808 808 807 806 804 803 802 801
810 811 811 811 812 812 809 805 804 804 804 806 807 805 805 807 806 809 809 802 796 797 800 802 802 803 804 805 807 810 812 814 815 814 814 816 818 819 820 821 822 824 824 824 825 826 826 826 827 828 828 828 828 828 828 828 827 826 825 825 825 824 824 822 821 821 820 819 818 817 816 815 814 813 812 810 809 808 808 807 806 805 804 802 801 800
808 810 811 813 814 812 811 807 805 807 807 804 801 799 800 802 800 803 807 803 795 793 796 798 800 802 803 806 809 811 814 815 812 807 809 815 817 818 820 821 822 823 824 824 825 825 826 827 827 827 828 828 827 827 828 828 827 826 825 825 825 824 824 823 822 821 820 819 818 817 816 815 814 812 811 810 809 808 807 806 805 804 803 802 800 799
809 808 809 813 812 810 812 811 809 810 806 799 797 799 801 801 800 803 807 802 794 793 795 796 798 801 802 806 809 811 814 814 806 800 805 812 815 817 819 819 819 821 822 823 823 824 824 826 826 827 828 827 827 827 827 827 827 826 825 825 825 824 823 823 822 821 820 819 818 817 816 815 814 812 811 810 808 807 806 805 804 803 802 801 800 798
811 809 809 812 809 807 811 809 803 801 799 795 796 799 799 800 803 808 809 800 793 793 794 794 797 799 800 803 807 810 811 808 803 802 807 812 814 816 817 817 818 820 821 821 822 823 824 825 826 826 826 826 826 826 827 827 826 826 825 825 825 824 823 823 822 821 820 819 818 817 816 815 814 812 811 810 808 807 806 805 803 802 801 800 799 797
810 808 808 809 805 803 808 810 802 795 792 793 796 798 799 803 807 808 804 795 791 793 794 794 796 797 799 802 806 806 804 805 807 809 811 813 815 816 817 819 819 820 821 821 822 824 824 823 824 825 824 825 825 826 826 826 825 825 825 824 824 824 823 823 822 820 820 818 817 816 815 814 813 812 810 809 808 807 805 804 803 801 800 799 798 796
806 807 806 807 805 800 800 803 801 794 792 795 797 798 802 805 803 798 793 790 791 793 794 795 796 796 799 802 804 803 801 805 811 812 812 814 814 814 816 818 819 820 821 821 823 824 824 823 824 824 824 824 825 825 825 826 825 824 824 824 823 823 823 822 821 820 819 817 816 815 814 813 812 811 810 809 808 806 805 803 802 801 799 798 797 796
797 802 800 797 799 799 800 805 806 799 795 796 799 802 805 801 792 787 788 791 792 793 794 796 796 796 799 801 802 803 804 807 811 812 812 814 813 813 815 816 818 819 819 820 821 823 824 824 824 824 823 823 824 824 825 825 824 824 824 823 823 823 822 821 820 819 818 817 816 815 814 812 811 810 809 809 807 806 805 803 801 800 799 798 796 795
790 795 792 786 789 795 799 800 796 790 789 792 793 793 795 791 785 784 787 789 791 793 793 795 796 797 799 800 801 803 805 808 811 812 812 813 813 814 815 816 817 818 818 819 820 822 824 824 823 823 824 823 824 824 825 825 824 824 823 823 823 822 822 821 820 819 818 816 815 814 813 812 811 810 809 808 807 805 804 802 801 800 799 797 796 795
788 789 789 786 787 788 788 785 782 781 785 788 786 783 784 785 785 787 786 786 789 792 791 793 795 797 799 800 800 802 805 807 809 810 811 812 812 813 814 815 816 817 817 818 820 821 823 822 822 823 823 822 823 824 823 824 824 823 823 822 822 821 821 820 819 818 817 815 814 813 812 811 810 809 808 807 806 805 803 802 801 800 799 798 797 795
784 786 789 787 785 784 782 780 780 782 783 784 784 783 784 786 786 787 787 786 787 790 790 792 794 796 799 800 800 802 804 805 807 809 810 810 811 812 813 815 816 816 817 818 819 820 821 821 821 821 821 821 822 822 822 822 822 822 822 821 821 820 820 819 818 817 816 815 813 812 811 810 810 809 808 807 806 805 804 802 801 800 799 798 797 796
781 785 787 786 786 789 786 779 778 781 781 781 782 782 783 785 786 786 787 786 785 789 791 792 793 795 798 800 800 801 803 804 806 807 808 809 810 811 813 814 815 815 816 817 818 819 819 819 819 819 819 820 820 820 821 821 820 821 821 820 820 819 819 818 818 816 815 814 813 812 811 810 809 808 807 806 806 804 803 802 801 800 799 798 797 796
779 786 786 783 784 786 782 776 775 779 779 779 780 779 779 782 784 785 786 786 786 788 790 791 793 795 796 799 800 800 802 803 805 806 807 808 809 810 811 813 813 814 815 815 816 818 818 818 818 818 818 818 818 819 819 819 819 820 820 820 819 819 818 818 817 816 815 814 813 812 811 810 809 808 807 806 805 804 803 802 801 800 799 798 797 796
781 786 783 781 781 780 777 774 774 777 777 775 777 777 777 777 779 782 785 786 787 788 789 791 793 794 795 797 798 799 801 802 803 805 806 806 807 808 809 810 811 812 813 814 815 816 816 817 817 817 817 817 817 818 818 819 819 819 819 819 819 818 818 818 817 816 815 814 812 812 811 809 809 807 806 806 805 803 803 802 801 800 799 798 797 795
782 782 777 780 784 781 775 771 772 776 775 770 770 775 776 775 777 779 781 784 786 787 788 790 792 794 795 796 797 798 800 800 801 803 804 805 806 807 807 808 809 810 811 812 813 814 815 815 815 815 816 816 816 817 817 818 818 818 818 818 818 818 818 817 816 815 814 813 812 812 811 809 808 807 806 805 804 803 802 801 800 799 798 797 796 794
777 775 773 777 779 774 769 767 769 774 773 767 769 774 775 774 777 778 779 781 783 784 786 788 790 793 794 795 796 797 798 798 800 801 802 803 805 806 806 807 807 808 809 810 811 812 812 813 814 814 814 814 814 815 816 816 817 817 817 817 817 817 817 816 815 814 813 812 812 811 810 809 808 807 806 805 804 803 801 799 798 797 796 796 794 792
Wind_Speed
3 4 3 1 2 3 2 2 2 2 0 1 2 3 3 3 3 3 3 3 1 4 3 2 2 4 4 5 6 6 5 7 9 8 8 9 8 8 9 10 10 9 9 11 12 13 10 8 8 8 11 12 15 21 21 18 18 20 20 21 21 19 20 22 20 20 20 19 17 16 15 15 15 15 14 13 13 12 10 10 11 10 11 11 11 11
4 4 1 3 3 3 1 0 2 2 3 4 4 4 4 5 4 4 4 3 3 6 3 4 3 4 4 4 6 5 6 8 9 9 10 10 9 8 9 11 10 9 9 11 13 14 13 7 6 8 11 13 13 15 18 19 21 22 22 19 19 19 19 20 21 21 20 20 18 15 15 14 14 14 14 13 13 12 10 10 11 11 11 11 11 11
4 1 4 3 1 2 1 2 4 5 5 5 5 4 4 5 3 4 5 4 3 6 4 7 5 3 4 4 6 6 6 7 8 9 10 10 9 9 10 11 11 11 11 12 14 15 17 12 3 6 9 11 12 13 14 16 20 23 23 20 19 19 19 21 22 21 20 19 18 15 13 12 12 13 13 12 11 11 10 11 12 12 12 12 11 12
2 3 5 2 2 3 4 3 5 5 6 6 5 5 4 3 4 4 6 6 5 5 4 6 6 3 5 4 5 5 5 5 7 8 9 10 10 11 12 11 11 12 11 12 14 14 18 16 7 3 7 9 12 15 15 16 20 22 21 19 18 18 19 20 21 20 17 16 16 13 11 11 11 11 11 12 11 11 11 11 13 13 13 13 12 12
0 6 4 2 3 4 4 4 6 5 5 6 6 6 5 4 6 4 3 5 5 6 6 6 7 5 6 5 4 4 3 4 6 8 10 10 11 11 11 11 11 11 11 12 13 13 15 18 14 6 4 7 9 12 14 15 18 20 18 18 18 19 19 18 18 18 15 13 14 13 11 10 10 10 11 12 12 12 12 12 13 13 14 14 13 13
2 6 2 3 3 4 5 4 5 4 4 5 6 7 6 4 6 5 5 6 6 7 8 8 8 5 7 7 4 3 2 4 6 8 10 11 11 10 10 11 11 11 10 11 12 13 14 17 18 15 8 4 6 9 10 11 13 15 16 17 18 17 15 12 11 15 17 15 15 16 14 13 14 13 13 12 12 12 12 12 13 13 14 14 13 13
2 4 2 4 4 5 7 5 3 4 6 3 3 4 5 5 5 6 7 6 6 4 4 7 8 5 7 8 6 4 3 3 5 8 11 10 10 10 10 11 11 11 10 10 11 12 13 16 18 19 17 11 7 6 6 6 8 11 14 15 15 10 6 5 6 11 19 19 16 16 15 13 13 12 11 11 11 11 12 12 12 13 13 13 13 13
1 3 4 5 6 6 6 4 2 4 7 0 4 2 5 5 6 7 7 6 6 3 3 8 9 7 5 5 6 5 5 3 4 8 11 11 10 10 11 11 11 11 10 9 10 10 12 15 16 17 17 16 15 11 8 7 7 9 13 12 7 2 3 7 9 14 22 21 16 15 14 12 11 10 10 10 10 10 10 10 10 11 12 12 12 13
2 4 3 4 6 5 4 2 0 4 6 2 4 2 4 4 5 5 6 6 5 4 6 8 8 8 5 5 5 4 4 2 5 7 10 10 11 10 10 10 10 11 10 10 10 10 12 14 15 15 16 16 16 15 12 9 8 8 11 5 8 10 7 11 13 17 23 20 15 15 15 13 13 13 11 11 10 9 8 7 8 8 9 10 11 13
1 3 4 5 6 3 3 2 1 5 4 2 3 4 4 4 4 5 6 6 4 6 8 7 8 8 5 5 4 2 2 2 5 6 8 9 10 9 8 9 9 9 9 9 10 10 12 13 14 14 15 17 16 14 11 9 7 7 6 4 14 13 11 12 12 15 21 19 15 15 16 14 14 13 12 11 10 11 10 9 7 7 9 10 10 12
1 0 2 4 4 4 4 2 1 4 3 2 5 6 5 5 5 4 5 4 5 7 6 5 6 7 5 3 3 3 2 3 4 4 6 8 9 9 8 7 8 8 8 8 9 10 12 13 13 14 16 16 15 15 13 12 10 8 6 5 13 12 8 9 10 13 18 19 18 16 15 15 14 13 12 11 11 12 13 13 12 11 11 12 12 12
2 4 3 2 2 4 5 4 3 3 4 4 6 5 5 5 4 5 5 4 7 6 3 3 4 8 7 2 4 4 3 4 4 4 7 8 9 9 8 7 7 7 8 8 8 9 11 12 13 15 16 15 16 17 16 14 14 11 8 5 11 11 8 9 11 14 18 20 19 17 16 18 18 16 15 14 14 15 16 18 17 15 15 15 15 14
4 3 2 3 2 3 5 5 4 5 6 6 6 5 5 5 4 5 5 5 6 3 3 2 4 7 4 3 4 3 4 4 4 5 6 7 8 9 8 8 7 7 8 8 8 8 9 11 13 14 15 15 15 15 14 13 13 13 11 7 8 7 7 8 10 13 16 17 18 18 19 21 22 20 18 17 16 16 19 21 19 17 17 16 17 17
2 4 2 5 3 2 5 3 2 4 5 6 6 5 6 5 4 5 5 5 5 2 3 2 3 5 2 4 3 3 4 4 3 3 4 5 7 7 7 7 7 8 8 7 7 8 8 10 12 12 13 14 14 13 13 12 12 12 12 10 8 6 4 6 8 10 12 14 15 16 18 19 19 18 17 17 16 16 18 20 20 20 20 18 18 18
3 2 2 1 1 2 3 3 3 3 5 5 4 5 6 5 5 4 4 4 3 2 4 4 3 3 1 3 3 3 3 3 2 2 4 4 4 5 6 6 8 8 7 6 7 8 9 10 11 11 11 12 13 13 13 13 12 11 11 11 10 8 6 2 4 6 8 10 11 13 15 16 16 15 15 17 18 17 16 17 18 20 21 21 20 19
5 0 4 3 2 3 3 3 4 5 5 3 2 6 5 4 4 3 3 3 4 4 2 4 3 1 2 4 4 3 3 4 3 3 4 4 3 3 5 6 7 7 7 7 7 7 9 11 10 10 11 11 11 12 13 13 13 12 11 10 10 9 7 5 3 2 3 4 6 9 10 11 13 14 15 16 16 16 16 16 17 18 19 20 20 20
4 0 4 2 1 3 4 3 4 4 3 1 3 5 1 2 5 3 1 1 3 6 2 2 3 2 4 5 4 4 5 4 4 4 4 3 3 3 4 5 5 6 7 7 7 7 8 10 10 9 10 10 10 11 12 12 12 11 11 11 11 10 9 6 5 4 2 1 2 5 6 7 11 13 13 13 13 13 14 16 17 17 17 19 20 19
4 2 3 2 2 4 3 1 2 4 4 3 3 2 2 1 5 4 3 3 4 6 2 1 5 4 4 3 4 5 6 4 2 4 3 2 3 3 4 4 5 5 6 6 7 7 7 8 9 9 9 9 10 10 10 11 10 10 10 10 11 11 11 9 8 6 4 2 2 3 4 6 9 11 11 12 12 12 12 14 15 15 16 18 18 18
4 3 3 1 1 3 2 4 3 2 4 6 5 4 3 3 4 4 4 4 4 5 2 1 4 4 2 2 6 6 6 7 4 1 1 1 2 3 4 4 5 5 5 5 6 6 7 8 8 8 8 9 9 9 9 9 9 9 10 10 10 11 11 10 10 9 8 5 2 1 3 5 7 8 9 9 9 9 10 12 13 14 15 15 16 16
2 3 1 2 1 1 3 4 3 3 4 7 6 5 5 3 3 3 3 3 3 4 2 2 2 1 2 3 7 7 7 8 6 4 4 1 2 2 3 4 4 5 4 5 6 6 8 8 8 8 8 8 8 8 8 8 8 9 10 10 10 10 10 10 10 10 9 9 7 3 1 3 5 6 7 8 7 8 10 11 13 15 15 15 15 15
2 3 1 1 2 2 2 1 3 1 3 5 5 5 5 4 3 3 3 3 3 4 2 3 3 2 5 4 6 8 8 9 7 5 4 3 2 1 2 3 4 4 3 5 5 6 8 9 10 9 8 8 8 7 7 7 7 8 8 10 10 10 10 10 10 9 9 9 8 7 5 1 2 4 6 7 7 8 9 10 12 13 14 14 14 14
1 2 3 1 1 1 2 3 4 3 3 3 3 4 4 4 4 4 4 3 2 4 3 3 3 3 4 2 5 7 7 8 8 6 5 4 4 3 1 1 3 3 3 4 4 5 8 9 10 10 9 9 8 7 7 6 7 7 7 8 10 10 10 10 10 9 8 8 8 8 7 5 3 1 2 3 4 5 6 7 8 10 12 13 14 14
2 3 3 1 2 2 4 2 1 1 3 3 3 4 4 3 4 5 4 1 2 3 2 3 3 2 3 4 6 7 7 7 7 7 5 5 4 4 2 1 1 2 3 4 4 5 7 8 9 10 10 10 9 8 7 7 7 7 7 7 8 10 10 10 10 9 9 8 8 8 7 7 6 5 3 1 0 2 3 5 7 8 9 12 13 13
1 3 2 1 2 3 4 3 3 3 3 3 3 2 4 3 4 4 3 2 2 3 2 4 2 2 4 6 6 7 8 8 7 6 5 5 4 4 4 3 1 2 3 3 4 5 6 7 7 8 9 9 9 9 8 8 7 7 7 7 7 8 9 9 9 8 8 8 8 8 7 7 7 7 6 4 3 2 1 3 6 7 8 9 10 11
1 2 1 1 1 2 2 3 4 4 4 3 2 1 3 4 4 4 3 3 4 3 3 4 1 3 5 7 7 8 8 7 7 6 5 4 4 3 4 3 2 2 2 3 4 4 4 6 7 7 8 8 9 9 9 9 8 8 8 8 7 7 8 8 8 8 7 7 7 7 7 7 6 6 6 5 5 4 3 2 2 4 5 6 8 9
1 2 2 3 2 1 1 1 1 1 2 2 1 2 3 4 5 4 3 4 4 2 3 5 1 4 6 7 7 8 8 7 7 7 5 3 3 3 2 1 1 1 2 3 4 4 4 5 6 7 8 8 8 9 9 9 9 9 9 9 8 8 8 8 7 7 6 6 6 6 7 7 7 7 6 6 6 6 5 4 3 2 2 3 5 6
0 1 2 4 5 4 3 4 3 3 2 1 3 3 3 3 4 5 5 4 3 1 3 3 2 2 6 8 8 8 8 7 7 7 5 4 3 2 1 1 0 0 1 3 3 4 4 5 6 7 8 8 9 8 8 8 9 9 9 9 9 9 9 9 8 7 6 6 6 6 7 7 7 7 7 7 7 7 6 6 5 4 3 3 3 3
1 2 2 3 4 3 3 3 2 2 2 2 3 3 4 3 4 5 6 4 5 4 2 2 3 1 2 7 8 8 8 8 7 7 5 4 3 2 1 1 1 1 1 2 3 4 5 5 6 7 8 8 9 8 8 8 8 9 9 9 10 10 10 9 9 8 8 7 6 6 6 7 7 7 7 8 8 7 7 7 7 7 6 5 4 4
2 2 2 1 1 1 1 2 2 2 2 2 3 4 4 5 5 6 8 6 6 6 3 5 4 3 2 3 7 7 8 7 7 6 5 3 3 3 2 2 1 1 1 2 3 4 5 5 6 7 8 8 9 9 9 9 9 9 9 9 10 10 10 10 9 9 8 8 8 7 7 7 7 7 7 8 8 8 8 8 8 8 7 7 6 6
2 1 2 2 1 2 3 3 3 3 3 3 3 4 4 6 6 7 8 7 6 7 6 6 5 4 2 2 5 6 6 6 5 5 5 5 5 4 3 2 1 1 1 2 3 4 5 5 6 6 7 8 9 9 9 9 10 10 10 10 10 10 11 11 10 9 8 8 8 8 8 7 7 7 7 8 8 8 8 9 8 9 9 8 8 8
2 1 2 2 2 2 2 3 4 4 5 4 3 2 3 5 5 6 7 5 5 7 6 5 5 3 1 3 4 6 5 5 5 5 5 5 3 3 3 2 1 1 1 1 2 3 4 6 6 7 7 7 8 8 9 9 10 10 11 10 10 11 11 11 11 10 9 9 8 8 8 8 7 7 7 7 8 8 8 9 9 9 9 9 9 9
2 1 2 3 3 2 1 3 3 4 6 6 4 2 2 4 4 3 4 4 4 4 3 4 5 2 4 5 4 6 6 6 5 5 4 4 3 3 3 2 2 1 1 2 2 3 4 5 6 7 7 7 7 8 9 9 9 10 11 11 11 11 10 10 10 10 10 9 9 9 9 8 8 8 8 7 8 8 9 9 9 9 10 10 10 10
2 2 2 3 3 2 2 2 2 3 4 3 1 1 1 2 3 3 2 3 4 3 3 3 2 3 5 5 5 6 6 6 5 4 4 4 4 4 4 3 2 1 1 2 3 3 3 4 6 7 7 7 7 8 9 9 9 10 10 10 10 10 10 10 9 10 10 10 10 10 9 9 9 8 8 8 8 9 10 10 10 10 11 11 12 12
2 3 1 2 3 1 1 2 3 3 2 2 4 1 1 2 3 3 3 3 4 5 4 4 3 3 3 5 5 5 4 4 4 4 4 4 4 4 4 3 2 1 1 2 3 3 3 4 5 6 7 7 8 8 8 8 9 9 9 9 10 10 10 10 9 9 10 10 10 10 10 10 9 8 8 9 9 10 10 11 11 11 12 12 13 13
3 3 2 1 3 3 2 3 4 2 2 3 3 0 2 3 4 5 6 5 5 7 7 6 3 3 5 5 4 3 3 2 2 3 4 4 4 4 4 3 2 2 2 2 2 3 3 3 4 5 6 7 7 7 7 8 8 9 9 9 10 10 10 10 9 9 10 10 11 11 11 11 10 9 9 9 10 10 11 11 12 12 13 13 13 14
4 4 2 1 2 3 3 3 3 2 3 3 1 1 1 2 3 5 6 5 6 7 8 7 6 5 6 5 4 2 1 2 2 3 4 5 5 5 4 3 3 2 2 2 2 3 4 4 4 5 5 6 7 7 8 8 8 8 9 9 9 10 10 10 10 10 11 11 12 12 12 11 11 10 10 10 10 11 11 11 12 12 13 13 14 14
6 4 3 2 1 2 4 3 2 1 2 3 1 3 5 3 3 4 5 4 4 6 7 7 6 6 7 6 4 4 2 3 4 4 5 7 6 5 5 4 3 3 3 3 2 3 5 5 5 4 5 6 7 7 8 8 8 9 8 8 9 10 9 9 10 11 11 12 12 13 12 11 12 12 12 12 12 12 12 13 13 13 13 13 14 14
6 5 4 3 1 1 4 4 2 3 3 3 3 4 5 2 1 3 5 4 3 4 6 8 8 7 8 7 6 5 4 4 4 3 6 8 7 6 6 5 4 3 3 3 3 4 4 4 5 4 5 6 7 7 8 8 8 9 8 8 9 9 8 9 10 11 11 11 12 12 11 11 11 12 12 13 13 13 14 14 13 13 12 13 14 14
7 6 5 4 3 3 5 5 3 3 2 2 4 6 6 4 2 3 6 2 4 2 5 8 9 8 8 8 7 6 4 5 4 1 6 8 7 7 6 5 4 3 3 3 4 4 4 4 5 5 5 6 7 7 7 7 7 8 8 9 9 8 8 9 10 11 11 11 11 10 10 10 10 11 12 13 13 13 14 13 12 12 11 12 12 13
8 6 6 6 6 4 4 5 4 3 2 2 4 6 6 5 4 5 4 1 4 1 3 7 9 9 9 8 7 6 5 4 2 3 6 7 7 6 5 4 3 2 3 3 2 3 4 4 4 5 6 5 6 6 6 7 7 7 8 8 8 8 8 9 10 11 11 11 10 10 9 9 9 11 12 13 13 13 13 13 12 11 11 11 11 12
7 6 6 6 6 4 5 5 5 3 1 4 5 7 8 6 5 5 2 4 4 1 2 5 8 8 9 8 6 6 4 1 4 4 5 7 6 6 5 3 2 2 3 2 1 2 5 5 4 5 6 5 5 6 6 6 7 7 8 8 8 8 9 10 10 11 11 11 10 10 9 8 9 11 12 12 13 13 13 12 12 12 12 11 11 12
6 5 5 6 6 5 4 5 6 3 2 5 6 8 7 5 2 1 3 5 2 1 3 5 7 7 8 8 6 4 2 3 4 2 5 6 6 5 5 4 4 3 3 2 1 2 4 6 4 4 5 4 4 5 5 6 8 8 8 8 8 8 9 9 10 11 11 11 10 10 9 9 10 11 11 12 13 13 13 13 12 12 11 11 12 12
4 4 5 5 5 5 4 4 6 3 3 9 9 7 6 5 3 4 4 4 2 2 3 4 6 7 8 8 7 5 3 3 3 4 5 6 6 5 3 3 4 3 3 3 2 2 2 5 4 3 4 4 4 4 5 6 7 8 8 8 7 8 8 9 10 10 10 10 9 9 9 8 9 11 11 11 12 13 13 13 13 12 11 11 12 12
4 4 5 3 3 4 4 4 2 1 6 12 9 4 6 6 1 2 2 3 3 3 3 4 5 7 7 7 7 6 5 4 4 5 5 6 5 5 4 4 4 3 3 2 1 1 2 4 3 2 3 3 3 4 4 5 7 8 8 8 7 7 8 7 8 9 9 8 8 8 8 8 8 10 10 11 12 12 13 14 13 12 12 11 11 11
4 2 4 3 3 4 5 3 2 5 7 11 8 3 3 5 3 1 2 1 3 4 3 3 5 7 8 7 6 6 6 5 5 5 6 6 6 6 5 5 4 4 3 2 2 2 3 3 2 2 3 3 3 4 4 5 6 7 7 7 6 7 7 7 8 8 9 8 8 8 8 8 8 9 9 10 11 11 12 13 14 13 12 12 11 11
3 2 2 3 2 3 6 5 3 2 5 9 9 6 2 3 4 4 4 3 2 4 3 3 4 7 8 7 6 6 6 5 6 6 6 6 6 6 6 5 5 5 4 4 3 4 5 5 4 3 4 4 4 4 5 5 6 6 7 7 7 7 6 7 8 8 8 8 7 7 8 8 7 8 8 9 10 10 10 11 12 12 11 11 11 11
5 5 4 5 3 3 4 4 4 5 5 6 8 8 7 6 5 5 6 5 2 5 5 4 4 6 8 7 7 6 6 6 6 6 6 6 6 6 6 6 6 6 5 5 5 5 5 6 5 5 5 6 5 5 5 6 6 6 6 7 7 6 6 6 7 7 8 7 7 7 7 7 7 7 7 7 8 9 9 10 11 11 10 10 10 11
4 5 5 7 7 6 6 3 3 3 4 5 6 6 7 9 8 7 7 5 3 5 6 6 6 6 7 7 7 7 6 7 7 6 6 6 6 6 6 7 7 6 6 5 6 7 7 7 7 6 6 6 6 5 5 6 6 5 6 6 6 6 6 6 6 6 7 7 6 6 6 6 6 6 6 6 7 7 8 9 9 10 10 9 8 9
4 4 4 5 6 7 8 7 6 6 6 7 8 6 6 7 9 10 9 7 6 7 8 8 7 7 6 7 7 7 7 7 7 7 7 6 5 6 6 6 6 6 6 6 7 8 9 9 8 7 7 7 6 5 5 6 5 5 5 6 6 5 5 6 6 6 6 6 5 5 6 6 5 5 5 5 5 6 6 7 8 8 8 7 7 8
4 6 5 4 6 7 6 5 5 5 6 4 5 5 5 5 7 9 11 10 9 9 9 9 9 8 8 7 7 7 7 7 7 8 8 6 6 7 7 7 7 7 7 7 7 9 10 10 9 9 9 8 6 5 5 5 5 4 4 4 5 4 5 6 6 6 5 4 4 5 6 6 5 5 5 5 6 6 6 7 8 8 8 7 8 9
7 9 7 6 7 7 5 4 3 4 6 3 3 4 3 4 6 9 11 12 12 11 10 10 10 9 9 9 9 9 7 7 8 9 8 7 8 8 7 7 7 7 7 8 9 10 10 11 10 10 9 8 6 6 5 5 4 4 4 4 4 4 5 5 6 6 5 4 4 5 6 6 5 5 6 6 6 7 7 7 7 8 10 11 10 10
Wind_Direction
273 242 214 256 40 35 20 341 336 28 100 237 231 228 233 229 193 162 156 118 221 236 164 155 136 103 73 55 42 27 37 37 38 39 36 39 41 41 38 35 33 30 24 14 9 6 352 311 278 237 194 186 197 206 209 209 215 221 215 198 189 190 191 188 189 194 193 192 192 186 187 190 194 198 197 202 206 206 199 186 182 182 185 187 188 193
245 246 99 44 34 46 33 239 226 224 218 225 238 223 211 231 205 161 179 146 216 245 173 163 169 111 85 60 52 34 41 41 32 32 35 36 39 43 39 34 32 28 21 13 10 9 9 353 274 243 208 194 198 209 215 215 216 220 221 210 197 194 195 192 193 197 194 194 195 190 189 191 196 199 200 204 205 204 197 184 182 180 184 187 189 194
217 218 74 61 61 114 143 184 210 218 223 228 236 237 222 225 210 170 191 183 213 250 199 182 198 129 105 74 60 46 47 50 39 37 37 36 39 41 37 33 28 25 19 14 12 7 8 10 314 233 219 208 205 215 222 220 221 224 222 216 206 200 200 201 201 200 196 194 192 190 187 187 198 202 202 206 204 202 196 190 190 186 187 190 193 198
220 84 70 91 174 194 180 171 211 214 217 231 233 243 236 212 241 220 191 186 208 258 255 204 210 173 141 127 86 59 50 58 47 43 43 39 41 40 36 33 28 26 21 14 12 5 5 8 2 240 226 217 206 208 214 221 225 226 224 220 211 204 204 205 205 202 197 189 184 181 179 184 197 201 200 204 204 202 199 197 196 192 194 195 198 202
13 80 82 158 183 222 211 181 216 229 217 223 232 253 255 214 245 258 181 187 211 237 246 229 227 204 181 179 132 85 57 58 43 39 43 42 43 41 38 37 32 28 24 19 14 8 6 5 3 349 257 231 217 210 210 218 226 228 230 227 221 217 213 208 205 202 192 181 178 174 173 185 197 199 198 201 203 204 203 204 202 199 200 200 200 203
82 91 127 214 196 224 241 219 223 253 254 224 219 246 269 249 243 247 209 212 229 223 210 222 244 218 179 179 152 133 100 56 37 35 36 35 37 36 34 36 31 26 25 24 20 14 10 6 3 2 353 296 249 235 224 221 224 231 237 236 233 229 219 212 206 196 186 181 184 183 180 186 196 201 202 202 204 207 207 209 208 202 200 200 201 205
100 124 196 254 244 229 242 247 221 252 266 243 177 220 260 260 243 241 230 227 248 242 177 208 251 242 179 169 145 152 146 69 36 34 34 26 28 30 31 31 28 25 23 24 27 23 16 10 6 3 2 360 340 297 265 251 237 239 245 243 244 241 218 222 220 194 187 186 190 192 190 191 197 202 205 204 204 209 212 214 212 207 203 201 204 209
173 199 212 250 258 247 247 250 182 240 269 300 108 179 229 229 231 239 242 239 252 264 193 210 239 257 223 164 133 168 175 102 36 29 30 23 21 26 30 31 29 29 26 24 30 32 23 15 13 7 1 5 6 359 341 305 276 257 255 253 257 269 203 210 211 199 192 189 190 194 195 197 200 202 204 201 202 208 212 215 214 213 210 207 209 212
245 260 259 266 262 262 272 295 102 248 266 85 105 221 232 232 242 243 249 252 252 253 241 220 221 248 244 158 141 183 184 102 32 28 25 19 19 19 21 27 30 33 34 31 30 36 34 23 19 15 6 8 13 14 6 334 309 286 270 247 111 104 137 172 185 197 196 191 189 192 194 197 198 200 201 197 196 199 203 211 217 220 220 214 212 215
260 309 319 289 272 282 292 304 295 258 265 100 148 222 215 225 242 243 253 256 242 245 255 228 209 246 250 164 154 154 151 10 13 26 23 19 21 17 14 20 26 33 37 36 34 39 44 38 32 27 19 15 14 15 16 3 344 320 302 141 133 131 133 148 171 196 198 194 193 194 197 202 201 199 202 199 193 191 189 197 211 227 239 238 223 215
37 0 256 269 296 317 295 272 250 260 263 155 200 213 206 214 220 236 252 257 251 245 243 213 206 250 257 167 112 89 89 -0 6 29 29 24 25 22 14 15 21 29 34 35 38 42 48 48 44 39 33 25 19 16 20 23 16 357 1 128 168 183 170 173 199 207 205 202 199 196 196 203 204 201 205 208 205 199 194 195 196 202 224 244 240 221
208 188 170 130 358 316 265 222 180 212 214 204 222 223 221 222 210 226 224 220 250 247 192 169 217 248 247 155 89 94 89 42 34 42 36 30 31 31 22 19 20 23 29 30 31 36 41 42 43 45 42 34 27 23 21 24 31 26 26 115 175 199 207 217 220 209 207 207 203 199 196 200 204 203 204 207 209 210 212 210 202 197 203 221 234 228
211 162 117 150 153 322 272 224 178 190 204 214 229 230 234 230 212 227 223 215 243 235 136 161 231 246 240 99 93 98 81 57 57 63 52 37 35 36 28 22 20 21 27 27 22 26 31 31 35 44 47 42 33 30 31 31 38 41 42 81 140 179 203 215 211 202 204 206 206 205 202 204 208 208 207 207 209 214 219 217 210 208 210 213 223 226
178 128 162 193 163 340 299 270 200 193 206 218 226 230 239 240 231 236 234 234 244 195 144 169 231 240 201 106 92 83 76 54 55 88 82 52 35 32 29 20 17 20 23 25 24 23 25 26 29 36 43 47 42 37 42 43 42 45 47 59 81 102 148 199 211 210 208 210 213 214 213 214 213 214 215 215 219 220 222 221 216 216 218 217 223 227
273 174 161 212 66 352 331 352 333 272 235 232 242 245 246 251 255 257 253 257 267 207 162 170 217 262 224 128 106 88 90 57 49 116 102 71 45 31 31 22 14 15 15 20 29 24 20 21 25 31 35 41 42 37 40 44 45 47 49 53 60 64 72 118 192 202 211 218 220 219 222 226 225 226 226 227 230 227 223 223 219 217 218 219 223 228
278 266 86 62 36 12 11 25 343 292 248 228 258 244 246 272 271 276 309 325 319 286 215 185 213 354 72 137 128 122 124 81 59 96 100 84 59 26 30 29 15 10 9 11 22 23 18 15 20 30 32 32 35 34 36 39 42 44 46 51 56 58 59 59 75 123 184 212 221 221 225 231 231 230 229 231 234 232 228 226 222 223 225 225 225 229
283 150 109 143 136 49 18 19 15 336 289 243 252 240 211 329 285 268 258 332 292 272 247 197 235 142 135 161 144 154 157 113 62 65 77 73 56 27 24 29 17 13 8 -0 5 14 15 12 14 23 29 31 31 30 33 34 36 39 39 44 51 54 57 54 59 78 101 147 220 233 232 231 231 230 230 232 234 234 237 237 233 232 235 236 234 233
309 273 138 198 192 89 50 339 43 15 327 278 257 267 91 234 261 260 248 219 238 257 229 224 260 223 187 182 156 175 176 153 89 40 35 31 48 36 33 36 27 24 10 354 355 5 16 18 14 17 26 34 32 30 32 31 31 34 33 38 44 46 48 47 51 62 72 104 193 235 240 234 231 234 235 237 238 237 239 241 240 239 243 246 245 242
306 278 133 121 326 107 130 239 209 149 286 283 293 297 261 234 224 215 245 253 248 262 249 220 255 243 237 165 161 175 173 166 164 81 320 12 56 35 34 43 38 32 15 3 359 1 19 25 21 21 25 36 39 36 37 35 32 31 28 32 37 39 41 40 42 47 54 63 81 242 248 240 234 235 237 238 240 240 241 243 244 245 248 251 252 250
294 279 138 112 319 201 186 247 241 174 235 268 275 260 239 261 280 228 243 274 268 273 274 269 260 215 58 100 154 161 158 166 173 187 206 170 93 46 27 35 40 36 19 15 11 9 23 29 30 31 29 39 46 43 42 39 34 30 25 26 29 33 35 36 37 40 43 47 48 43 341 244 238 236 236 235 236 238 242 245 247 250 252 252 253 253
266 268 281 140 182 227 193 342 339 341 232 240 234 232 217 218 273 272 250 257 277 282 274 282 287 84 71 80 138 143 154 170 179 187 192 164 133 122 27 22 38 44 29 24 18 18 29 32 33 36 35 41 45 42 42 39 36 32 25 23 22 24 26 25 27 31 35 40 41 42 42 23 238 233 234 231 231 236 241 244 247 250 251 252 252 252
299 272 289 303 143 169 97 53 7 354 312 269 231 249 250 224 236 250 232 201 228 271 292 294 299 69 87 120 135 140 161 175 180 183 180 164 157 152 143 355 29 45 39 35 28 24 31 34 36 38 39 43 44 40 37 35 34 32 26 23 20 19 20 17 14 17 22 28 33 36 38 37 29 330 250 231 231 239 244 246 249 250 248 247 248 247
323 280 279 354 57 82 105 104 340 318 311 298 261 275 289 259 249 257 252 191 200 242 284 272 273 68 115 155 147 153 170 174 178 184 179 166 159 155 160 215 5 51 45 37 34 29 29 32 38 41 42 44 46 44 40 36 36 34 27 23 20 19 17 12 9 7 9 15 20 26 32 36 36 33 34 42 351 271 260 255 252 249 246 244 244 243
226 275 267 105 91 107 133 170 203 202 237 247 232 277 294 267 265 281 299 318 262 237 246 249 239 116 144 161 162 168 171 174 182 186 182 165 151 152 159 181 190 78 62 46 41 36 31 31 36 41 43 44 45 45 43 40 40 40 35 28 23 18 13 9 8 6 5 7 10 16 23 31 36 36 36 42 45 42 319 271 260 254 250 246 245 243
211 308 289 226 165 154 186 200 187 186 214 226 192 283 306 292 275 273 275 267 256 246 265 276 307 108 149 165 175 183 182 185 182 178 187 175 149 155 164 172 168 97 71 57 49 44 38 35 36 39 42 44 45 45 45 43 43 44 43 38 31 23 13 7 6 5 6 4 3 9 14 17 24 26 27 29 29 32 32 358 302 282 267 257 254 250
282 345 328 314 340 357 308 324 123 186 216 219 222 257 298 304 286 276 266 249 243 209 236 268 337 106 148 172 186 192 196 196 179 172 190 188 157 164 172 165 144 97 67 52 44 41 40 38 38 40 41 43 45 45 45 45 45 46 45 43 39 32 23 15 9 7 10 8 2 1 3 4 6 6 7 9 8 8 7 5 -0 345 313 284 273 264
253 50 9 359 19 30 18 30 34 -0 335 265 265 262 274 304 303 284 258 255 287 266 227 261 2 113 166 183 190 195 202 200 182 179 190 184 172 182 180 155 111 60 51 46 36 33 38 39 40 40 38 40 41 41 43 43 43 42 41 40 37 35 30 22 15 12 14 14 8 1 356 354 353 352 352 352 352 352 351 349 346 341 338 328 309 290
224 103 60 22 47 56 19 24 34 343 327 303 287 279 274 284 292 272 258 289 330 295 251 43 20 314 171 177 184 187 196 199 190 190 191 177 180 197 204 215 240 293 20 34 29 31 35 38 40 38 35 36 37 35 36 37 37 35 33 32 31 30 28 22 17 17 17 17 13 7 358 350 346 344 343 340 339 339 339 338 335 331 330 327 318 307
280 101 133 246 88 122 276 293 285 281 298 305 290 283 277 267 267 264 264 288 305 281 307 12 338 316 34 163 179 175 184 191 184 186 185 177 188 198 213 232 246 300 354 14 19 29 36 35 36 36 33 30 28 28 28 27 29 29 27 27 26 23 21 18 16 16 16 17 15 8 1 354 347 340 337 336 333 331 331 328 325 322 319 315 310 304
302 113 155 234 236 216 240 248 258 266 273 280 274 270 269 264 265 265 267 281 285 275 299 331 309 306 12 144 157 149 167 174 162 171 185 192 198 202 217 234 238 291 336 12 19 27 36 36 35 35 34 30 24 22 22 22 24 25 23 22 21 18 16 14 13 13 12 13 11 5 360 357 351 344 339 337 333 329 327 322 320 316 312 307 302 299
273 156 155 239 237 202 223 243 244 253 265 276 288 284 256 253 259 261 263 268 261 262 279 298 284 267 150 127 121 128 154 174 174 185 199 203 204 214 233 236 218 248 325 20 28 28 33 36 33 29 28 28 24 20 21 20 22 23 22 20 17 15 12 11 12 11 10 8 5 2 -0 357 353 347 342 337 332 329 325 320 317 312 307 305 302 298
241 200 175 235 247 157 166 257 243 242 259 266 277 293 234 225 241 258 262 250 245 258 259 249 259 243 137 138 144 150 170 193 200 202 209 210 209 216 218 209 205 247 340 14 18 22 26 27 31 28 20 18 21 21 19 19 21 22 20 18 16 13 10 12 13 11 9 7 1 -0 359 354 351 348 343 337 333 329 325 319 314 309 304 302 301 297
239 235 198 255 280 107 126 271 257 242 254 245 263 332 237 210 241 257 255 237 232 237 225 230 288 44 105 150 172 174 187 206 212 213 218 215 209 206 204 197 202 262 344 353 354 4 13 16 25 28 18 13 18 19 16 18 19 16 14 16 15 12 9 11 12 11 8 4 1 360 356 351 350 348 344 340 335 330 325 319 313 309 304 300 298 293
228 254 265 297 305 27 77 264 232 239 277 69 73 17 271 248 267 262 257 241 210 208 233 273 337 47 131 174 181 180 191 206 218 221 221 219 206 196 199 206 216 279 316 329 334 340 358 6 13 21 20 16 15 12 10 15 15 7 6 12 12 10 9 6 6 8 6 2 -0 357 352 349 347 346 343 339 336 331 324 319 314 308 303 298 295 290
224 243 250 287 295 307 319 268 237 251 6 63 81 8 273 276 282 279 281 270 226 217 233 253 258 201 182 182 175 175 184 191 218 228 215 208 201 191 192 204 220 244 256 285 312 322 335 342 350 5 14 13 8 3 4 8 6 358 360 6 7 8 6 2 1 5 2 359 357 354 350 348 344 343 339 335 334 332 324 318 314 309 306 302 296 292
235 239 239 254 288 297 295 280 282 343 51 85 112 155 177 232 246 262 278 261 224 223 229 232 227 199 185 183 172 151 144 168 212 227 207 196 194 192 193 198 208 234 258 280 305 315 317 322 334 348 358 359 358 -0 1 360 355 352 355 -0 3 3 1 358 359 1 359 356 354 351 348 345 342 340 337 333 332 331 326 322 316 311 308 305 300 297
235 243 247 250 279 300 290 285 298 293 157 142 143 171 182 207 215 235 283 280 214 218 225 225 222 197 187 188 168 148 159 200 217 212 195 194 196 195 199 204 206 229 259 268 281 302 309 311 316 324 335 342 345 351 354 351 349 348 350 356 358 356 355 355 356 356 355 353 350 347 344 342 341 339 337 336 333 331 329 325 319 315 312 308 304 300
227 235 247 251 215 255 287 287 272 262 218 136 111 149 177 215 211 234 284 287 194 204 221 221 217 200 189 185 171 162 184 224 238 207 178 185 193 193 199 207 211 230 251 256 267 289 297 293 292 299 315 323 332 342 345 344 345 344 347 355 354 349 349 352 352 351 351 348 346 344 341 340 341 340 339 338 335 332 329 326 322 319 316 311 306 301
219 229 238 255 242 234 274 284 265 274 312 86 112 145 169 187 182 237 272 249 144 172 228 219 213 202 193 188 180 177 204 234 253 168 149 170 188 192 197 206 207 220 248 255 272 303 320 309 286 279 290 304 320 336 337 335 337 338 344 352 349 344 348 349 348 347 346 344 342 340 340 340 341 342 340 337 335 331 328 326 323 321 317 313 308 304
212 223 220 238 247 232 248 275 277 274 281 124 134 145 155 165 192 244 273 86 104 129 229 215 210 201 196 193 187 199 226 247 317 67 122 154 179 185 196 220 221 222 245 247 262 311 321 311 280 268 276 292 313 327 331 331 329 330 340 345 341 343 347 345 343 343 341 341 340 339 341 342 343 345 342 340 339 335 331 329 325 321 319 314 309 307
206 217 220 238 251 227 222 259 279 271 161 133 142 143 143 158 205 250 318 59 77 104 198 211 211 197 192 193 193 214 227 146 49 66 127 155 174 179 188 212 228 237 251 263 0 325 311 315 299 280 280 283 301 318 324 326 325 327 336 338 337 341 343 339 339 340 339 340 341 341 343 343 345 347 345 343 343 339 336 333 326 323 322 317 312 310
202 208 216 233 249 247 245 266 275 276 118 126 131 132 150 185 236 351 63 70 77 130 161 202 208 191 187 194 202 227 220 108 98 130 157 168 184 188 186 195 211 225 235 239 219 252 305 321 312 281 277 272 286 309 316 318 321 325 330 333 335 337 337 336 337 338 338 339 340 341 342 343 348 350 346 346 346 344 342 340 332 327 326 321 318 316
196 208 224 220 225 243 249 248 265 292 125 143 138 133 181 231 347 55 109 111 104 151 168 191 200 189 187 194 202 216 205 150 157 173 172 182 197 204 198 199 217 227 223 231 222 205 309 322 310 280 278 278 288 305 310 311 316 322 327 329 332 330 329 331 333 334 335 335 336 340 340 341 349 353 349 348 348 348 349 348 341 335 333 329 326 323
191 213 249 232 189 223 245 232 254 25 135 163 168 167 205 218 10 46 186 154 136 170 179 177 185 186 191 200 205 206 204 193 186 187 191 199 205 210 210 206 216 226 224 247 271 217 291 313 318 288 275 276 288 299 300 301 308 319 324 324 325 322 321 324 329 331 332 332 335 340 341 343 350 353 352 350 350 350 353 353 350 346 342 338 334 330
209 229 294 292 201 234 279 306 47 80 136 179 207 252 206 195 186 200 249 193 149 171 184 175 173 178 192 207 208 203 206 206 199 199 204 206 204 207 210 211 218 228 235 260 273 251 264 292 317 293 275 277 285 291 293 297 304 314 319 320 320 316 315 322 327 329 331 334 338 342 344 347 352 355 355 356 354 353 354 354 354 352 349 346 341 336
209 198 289 284 240 248 272 267 229 185 174 193 219 239 210 185 183 186 216 236 169 158 172 173 166 172 186 202 208 204 202 202 200 202 204 205 204 203 207 214 219 226 240 257 262 259 266 278 288 284 285 292 294 294 298 298 301 310 317 321 320 314 314 320 324 326 330 333 338 344 347 351 355 353 355 359 359 358 357 356 356 355 351 348 344 340
198 188 216 244 242 243 251 225 199 214 214 204 220 227 214 209 203 195 215 234 186 161 173 172 167 173 180 192 205 204 195 193 198 196 194 201 205 204 209 218 221 225 236 247 249 249 254 263 270 273 281 291 294 296 300 301 303 309 317 321 319 313 312 315 317 324 330 332 336 342 346 353 355 348 349 358 359 359 360 359 359 360 356 350 345 340
180 175 219 239 233 239 258 252 185 195 213 211 225 230 219 216 212 200 208 221 186 170 176 175 174 175 175 187 201 203 195 194 198 198 198 202 208 208 210 215 219 224 233 239 237 235 239 250 260 266 274 283 287 288 292 298 304 308 313 317 316 309 306 307 307 313 321 324 330 338 341 347 351 347 347 352 351 354 2 3 2 3 4 0 352 341
116 166 222 238 237 245 256 253 233 227 227 217 217 229 239 233 219 203 197 199 191 182 180 180 183 185 185 189 196 201 202 198 197 202 205 204 206 209 211 214 221 229 236 238 233 230 235 245 254 260 269 276 279 276 278 289 296 296 297 307 311 302 295 295 294 295 306 314 324 334 336 338 346 350 348 346 344 348 358 360 358 1 5 3 1 355
184 229 231 221 238 245 245 241 236 246 254 225 188 202 227 229 218 205 193 190 195 194 187 184 186 193 199 199 196 200 205 201 197 202 207 207 209 213 219 225 230 234 237 237 234 231 235 242 249 256 266 274 273 266 268 279 287 283 285 299 305 293 283 285 285 283 290 308 328 336 331 327 338 346 342 343 345 341 338 341 347 353 353 349 359 9
221 243 241 233 245 255 262 263 241 247 270 273 133 151 187 191 201 203 195 194 197 194 191 191 188 191 200 203 202 205 207 202 199 201 207 214 217 222 229 231 235 239 236 232 233 236 237 239 243 249 258 267 266 257 257 269 274 272 280 292 294 283 275 278 284 285 286 304 329 335 323 317 327 335 332 337 342 338 335 334 334 341 345 345 353 5